Time,TemperatureF,DewpointF,PressureIn,WindDirection,WindDirectionDegrees,WindSpeedMPH,WindSpeedGustMPH,Humidity,HourlyPrecipIn,Conditions,Clouds,dailyrainin,SoftwareType,DateUTC
2013-12-13 00:14:00,-999.0,-99.9,26.55,North,-999,-999.0,-999.0,-999,0.00,,,0.00,weatherlink.com 1.10,2013-12-13 05:14:00,
2013-12-13 00:29:00,-999.0,-99.9,26.55,North,-999,-999.0,-999.0,-999,0.00,,,0.00,weatherlink.com 1.10,2013-12-13 05:29:00,
2013-12-13 00:44:00,-999.0,-99.9,26.55,North,-999,-999.0,-999.0,-999,0.00,,,0.00,weatherlink.com 1.10,2013-12-13 05:44:00,
2013-12-13 00:59:00,-999.0,-99.9,26.54,North,-999,-999.0,-999.0,-999,0.00,,,0.00,weatherlink.com 1.10,2013-12-13 05:59:00,
2013-12-13 01:14:00,-999.0,-99.9,26.54,North,-999,-999.0,-999.0,-999,0.00,,,0.00,weatherlink.com 1.10,2013-12-13 06:14:00,
2013-12-13 01:29:00,-999.0,-99.9,26.53,North,-999,-999.0,-999.0,-999,0.00,,,0.00,weatherlink.com 1.10,2013-12-13 06:29:00,
2013-12-13 01:44:00,-999.0,-99.9,26.53,North,-999,-999.0,-999.0,-999,0.00,,,0.00,weatherlink.com 1.10,2013-12-13 06:44:00,
2013-12-13 01:59:00,-999.0,-99.9,26.54,North,-999,-999.0,-999.0,-999,0.00,,,0.00,weatherlink.com 1.10,2013-12-13 06:59:00,
2013-12-13 02:15:00,-999.0,-99.9,26.54,North,-999,-999.0,-999.0,-999,0.00,,,0.00,weatherlink.com 1.10,2013-12-13 07:15:00,
2013-12-13 02:30:00,-999.0,-99.9,26.54,North,-999,-999.0,-999.0,-999,0.00,,,0.00,weatherlink.com 1.10,2013-12-13 07:30:00,
2013-12-13 02:45:00,-999.0,-99.9,26.55,North,-999,-999.0,-999.0,-999,0.00,,,0.00,weatherlink.com 1.10,2013-12-13 07:45:00,
2013-12-13 03:00:00,-999.0,-99.9,26.55,North,-999,-999.0,-999.0,-999,0.00,,,0.00,weatherlink.com 1.10,2013-12-13 08:00:00,
2013-12-13 03:15:00,-999.0,-99.9,26.55,North,-999,-999.0,-999.0,-999,0.00,,,0.00,weatherlink.com 1.10,2013-12-13 08:15:00,
2013-12-13 03:30:00,-999.0,-99.9,26.55,North,-999,-999.0,-999.0,-999,0.00,,,0.00,weatherlink.com 1.10,2013-12-13 08:30:00,
2013-12-13 03:45:00,-999.0,-99.9,26.54,North,-999,-999.0,-999.0,-999,0.00,,,0.00,weatherlink.com 1.10,2013-12-13 08:45:00,
2013-12-13 04:00:00,-999.0,-99.9,26.53,North,-999,-999.0,-999.0,-999,0.00,,,0.00,weatherlink.com 1.10,2013-12-13 09:00:00,
2013-12-13 04:15:00,-999.0,-99.9,26.52,North,-999,-999.0,-999.0,-999,0.00,,,0.00,weatherlink.com 1.10,2013-12-13 09:15:00,
2013-12-13 04:30:00,-999.0,-99.9,26.52,North,-999,-999.0,-999.0,-999,0.00,,,0.00,weatherlink.com 1.10,2013-12-13 09:30:00,
2013-12-13 04:45:00,-999.0,-99.9,26.52,North,-999,-999.0,-999.0,-999,0.00,,,0.00,weatherlink.com 1.10,2013-12-13 09:45:00,
2013-12-13 05:00:00,-999.0,-99.9,26.52,North,-999,-999.0,-999.0,-999,0.00,,,0.00,weatherlink.com 1.10,2013-12-13 10:00:00,
2013-12-13 05:15:00,-999.0,-99.9,26.52,North,-999,-999.0,-999.0,-999,0.00,,,0.00,weatherlink.com 1.10,2013-12-13 10:15:00,
2013-12-13 05:30:00,-999.0,-99.9,26.52,North,-999,-999.0,-999.0,-999,0.00,,,0.00,weatherlink.com 1.10,2013-12-13 10:30:00,
2013-12-13 05:46:00,-999.0,-99.9,26.52,North,-999,-999.0,-999.0,-999,0.00,,,0.00,weatherlink.com 1.10,2013-12-13 10:46:00,
2013-12-13 06:01:00,-999.0,-99.9,26.52,North,-999,-999.0,-999.0,-999,0.00,,,0.00,weatherlink.com 1.10,2013-12-13 11:01:00,
2013-12-13 06:16:00,-999.0,-99.9,26.52,North,-999,-999.0,-999.0,-999,0.00,,,0.00,weatherlink.com 1.10,2013-12-13 11:16:00,
2013-12-13 06:31:00,-999.0,-99.9,26.52,North,-999,-999.0,-999.0,-999,0.00,,,0.00,weatherlink.com 1.10,2013-12-13 11:31:00,
2013-12-13 06:46:00,-999.0,-99.9,26.53,North,-999,-999.0,-999.0,-999,0.00,,,0.00,weatherlink.com 1.10,2013-12-13 11:46:00,
2013-12-13 07:01:00,-999.0,-99.9,26.53,North,-999,-999.0,-999.0,-999,0.00,,,0.00,weatherlink.com 1.10,2013-12-13 12:01:00,
2013-12-13 07:16:00,-999.0,-99.9,26.53,North,-999,-999.0,-999.0,-999,0.00,,,0.00,weatherlink.com 1.10,2013-12-13 12:16:00,
2013-12-13 07:31:00,-999.0,-99.9,26.54,North,-999,-999.0,-999.0,-999,0.00,,,0.00,weatherlink.com 1.10,2013-12-13 12:31:00,
2013-12-13 07:46:00,-999.0,-99.9,26.53,North,-999,-999.0,-999.0,-999,0.00,,,0.00,weatherlink.com 1.10,2013-12-13 12:46:00,
2013-12-13 08:01:00,-999.0,-99.9,26.53,North,-999,-999.0,-999.0,-999,0.00,,,0.00,weatherlink.com 1.10,2013-12-13 13:01:00,
2013-12-13 08:16:00,-999.0,-99.9,26.53,North,-999,-999.0,-999.0,-999,0.00,,,0.00,weatherlink.com 1.10,2013-12-13 13:16:00,
2013-12-13 08:31:00,-999.0,-99.9,26.54,North,-999,-999.0,-999.0,-999,0.00,,,0.00,weatherlink.com 1.10,2013-12-13 13:31:00,
2013-12-13 08:46:00,23.8,16.0,26.54,NW,317,0.0,2.0,73,0.00,,,0.00,weatherlink.com 1.10,2013-12-13 13:46:00,
2013-12-13 09:01:00,25.7,18.0,26.54,NW,317,0.0,0.0,71,0.00,,,0.00,weatherlink.com 1.10,2013-12-13 14:01:00,
2013-12-13 09:17:00,29.0,19.0,26.54,NW,317,0.0,3.0,65,0.00,,,0.00,weatherlink.com 1.10,2013-12-13 14:17:00,
2013-12-13 09:32:00,32.8,16.0,26.54,NW,317,2.0,4.0,50,0.00,,,0.00,weatherlink.com 1.10,2013-12-13 14:32:00,
2013-12-13 09:47:00,34.7,13.0,26.55,WSW,249,0.0,3.0,41,0.00,,,0.00,weatherlink.com 1.10,2013-12-13 14:47:00,
2013-12-13 10:02:00,35.0,14.0,26.55,SW,221,4.0,8.0,43,0.00,,,0.00,weatherlink.com 1.10,2013-12-13 15:02:00,
2013-12-13 10:17:00,36.8,14.0,26.55,SW,220,2.0,10.0,39,0.00,,,0.00,weatherlink.com 1.10,2013-12-13 15:17:00,
2013-12-13 10:32:00,37.3,13.0,26.55,SSW,197,9.0,10.0,37,0.00,,,0.00,weatherlink.com 1.10,2013-12-13 15:32:00,
2013-12-13 10:47:00,38.0,12.0,26.55,SSW,203,7.0,11.0,34,0.00,,,0.00,weatherlink.com 1.10,2013-12-13 15:47:00,
2013-12-13 11:02:00,39.3,11.0,26.54,SW,227,4.0,8.0,31,0.00,,,0.00,weatherlink.com 1.10,2013-12-13 16:02:00,
2013-12-13 11:17:00,40.5,12.0,26.53,SW,216,0.0,10.0,31,0.00,,,0.00,weatherlink.com 1.10,2013-12-13 16:17:00,
2013-12-13 11:32:00,41.2,11.0,26.53,SW,225,6.0,10.0,29,0.00,,,0.00,weatherlink.com 1.10,2013-12-13 16:32:00,
2013-12-13 11:47:00,41.9,12.0,26.52,WSW,251,5.0,13.0,29,0.00,,,0.00,weatherlink.com 1.10,2013-12-13 16:47:00,
2013-12-13 12:02:00,43.1,12.0,26.52,SSW,196,4.0,12.0,28,0.00,,,0.00,weatherlink.com 1.10,2013-12-13 17:02:00,
2013-12-13 12:17:00,43.9,15.0,26.51,WSW,247,1.0,8.0,31,0.00,,,0.00,weatherlink.com 1.10,2013-12-13 17:17:00,
2013-12-13 12:32:00,44.3,13.0,26.50,South,183,6.0,9.0,28,0.00,,,0.00,weatherlink.com 1.10,2013-12-13 17:32:00,
2013-12-13 12:47:00,45.1,14.0,26.50,SSW,207,7.0,9.0,28,0.00,,,0.00,weatherlink.com 1.10,2013-12-13 17:47:00,
2013-12-13 13:02:00,44.9,13.0,26.49,SW,227,4.0,9.0,28,0.00,,,0.00,weatherlink.com 1.10,2013-12-13 18:02:00,
2013-12-13 13:17:00,44.5,12.0,26.49,South,182,3.0,10.0,27,0.00,,,0.00,weatherlink.com 1.10,2013-12-13 18:17:00,
2013-12-13 13:32:00,44.5,11.0,26.48,SSE,154,5.0,8.0,25,0.00,,,0.00,weatherlink.com 1.10,2013-12-13 18:32:00,
2013-12-13 13:47:00,42.1,15.0,26.49,SE,132,4.0,8.0,33,0.00,,,0.00,weatherlink.com 1.10,2013-12-13 18:47:00,
2013-12-13 14:02:00,40.6,13.0,26.49,ESE,111,3.0,8.0,33,0.00,,,0.00,weatherlink.com 1.10,2013-12-13 19:02:00,
2013-12-13 14:17:00,41.2,15.0,26.49,ESE,111,5.0,8.0,35,0.00,,,0.00,weatherlink.com 1.10,2013-12-13 19:17:00,
2013-12-13 14:32:00,41.9,15.0,26.48,ESE,102,1.0,6.0,34,0.00,,,0.00,weatherlink.com 1.10,2013-12-13 19:32:00,
2013-12-13 14:47:00,41.6,16.0,26.48,SE,131,0.0,6.0,35,0.00,,,0.00,weatherlink.com 1.10,2013-12-13 19:47:00,
2013-12-13 15:02:00,41.3,18.0,26.48,SE,130,0.0,6.0,39,0.00,,,0.00,weatherlink.com 1.10,2013-12-13 20:02:00,
2013-12-13 15:17:00,41.8,18.0,26.48,SE,124,2.0,8.0,38,0.00,,,0.00,weatherlink.com 1.10,2013-12-13 20:17:00,
2013-12-13 15:32:00,40.5,15.0,26.48,ESE,122,0.0,10.0,36,0.00,,,0.00,weatherlink.com 1.10,2013-12-13 20:32:00,
2013-12-13 15:47:00,40.6,17.0,26.49,ESE,122,0.0,3.0,38,0.00,,,0.00,weatherlink.com 1.10,2013-12-13 20:47:00,
2013-12-13 16:02:00,40.3,16.0,26.48,ESE,122,3.0,5.0,38,0.00,,,0.00,weatherlink.com 1.10,2013-12-13 21:02:00,
2013-12-13 16:17:00,40.5,17.0,26.49,ESE,123,0.0,3.0,39,0.00,,,0.00,weatherlink.com 1.10,2013-12-13 21:17:00,
2013-12-13 16:32:00,38.8,15.0,26.49,SE,126,1.0,4.0,38,0.00,,,0.00,weatherlink.com 1.10,2013-12-13 21:32:00,
2013-12-13 16:47:00,37.0,17.0,26.48,SE,126,0.0,3.0,45,0.00,,,0.00,weatherlink.com 1.10,2013-12-13 21:47:00,
2013-12-13 17:02:00,36.3,16.0,26.49,SE,126,0.0,1.0,43,0.00,,,0.00,weatherlink.com 1.10,2013-12-13 22:02:00,
2013-12-13 17:17:00,-999.0,-99.9,26.49,North,-999,-999.0,-999.0,-999,0.00,,,0.00,weatherlink.com 1.10,2013-12-13 22:17:00,
2013-12-13 17:33:00,-999.0,-99.9,26.49,North,-999,-999.0,-999.0,-999,0.00,,,0.00,weatherlink.com 1.10,2013-12-13 22:33:00,
2013-12-13 17:48:00,-999.0,-99.9,26.50,North,-999,-999.0,-999.0,-999,0.00,,,0.00,weatherlink.com 1.10,2013-12-13 22:48:00,
2013-12-13 18:03:00,-999.0,-99.9,26.50,North,-999,-999.0,-999.0,-999,0.00,,,0.00,weatherlink.com 1.10,2013-12-13 23:03:00,
2013-12-13 18:18:00,-999.0,-99.9,26.50,North,-999,-999.0,-999.0,-999,0.00,,,0.00,weatherlink.com 1.10,2013-12-13 23:18:00,
2013-12-13 18:33:00,-999.0,-99.9,26.50,North,-999,-999.0,-999.0,-999,0.00,,,0.00,weatherlink.com 1.10,2013-12-13 23:33:00,
2013-12-13 18:48:00,-999.0,-99.9,26.51,North,-999,-999.0,-999.0,-999,0.00,,,0.00,weatherlink.com 1.10,2013-12-13 23:48:00,
2013-12-13 19:03:00,-999.0,-99.9,26.52,North,-999,-999.0,-999.0,-999,0.00,,,0.00,weatherlink.com 1.10,2013-12-14 00:03:00,
2013-12-13 19:18:00,-999.0,-99.9,26.51,North,-999,-999.0,-999.0,-999,0.00,,,0.00,weatherlink.com 1.10,2013-12-14 00:18:00,
2013-12-13 19:33:00,-999.0,-99.9,26.50,North,-999,-999.0,-999.0,-999,0.00,,,0.00,weatherlink.com 1.10,2013-12-14 00:33:00,
2013-12-13 19:48:00,-999.0,-99.9,26.51,North,-999,-999.0,-999.0,-999,0.00,,,0.00,weatherlink.com 1.10,2013-12-14 00:48:00,
2013-12-13 20:03:00,-999.0,-99.9,26.51,North,-999,-999.0,-999.0,-999,0.00,,,0.00,weatherlink.com 1.10,2013-12-14 01:03:00,
2013-12-13 20:18:00,-999.0,-99.9,26.51,North,-999,-999.0,-999.0,-999,0.00,,,0.00,weatherlink.com 1.10,2013-12-14 01:18:00,
2013-12-13 20:33:00,-999.0,-99.9,26.50,North,-999,-999.0,-999.0,-999,0.00,,,0.00,weatherlink.com 1.10,2013-12-14 01:33:00,
2013-12-13 20:49:00,-999.0,-99.9,26.51,North,-999,-999.0,-999.0,-999,0.00,,,0.00,weatherlink.com 1.10,2013-12-14 01:49:00,
2013-12-13 21:04:00,-999.0,-99.9,26.52,North,-999,-999.0,-999.0,-999,0.00,,,0.00,weatherlink.com 1.10,2013-12-14 02:04:00,
2013-12-13 21:19:00,-999.0,-99.9,26.52,North,-999,-999.0,-999.0,-999,0.00,,,0.00,weatherlink.com 1.10,2013-12-14 02:19:00,
2013-12-13 21:34:00,-999.0,-99.9,26.51,North,-999,-999.0,-999.0,-999,0.00,,,0.00,weatherlink.com 1.10,2013-12-14 02:34:00,
2013-12-13 21:49:00,-999.0,-99.9,26.50,North,-999,-999.0,-999.0,-999,0.00,,,0.00,weatherlink.com 1.10,2013-12-14 02:49:00,
2013-12-13 22:04:00,-999.0,-99.9,26.51,North,-999,-999.0,-999.0,-999,0.00,,,0.00,weatherlink.com 1.10,2013-12-14 03:04:00,
2013-12-13 22:19:00,-999.0,-99.9,26.52,North,-999,-999.0,-999.0,-999,0.00,,,0.00,weatherlink.com 1.10,2013-12-14 03:19:00,
2013-12-13 22:34:00,-999.0,-99.9,26.52,North,-999,-999.0,-999.0,-999,0.00,,,0.00,weatherlink.com 1.10,2013-12-14 03:34:00,
2013-12-13 22:49:00,-999.0,-99.9,26.51,North,-999,-999.0,-999.0,-999,0.00,,,0.00,weatherlink.com 1.10,2013-12-14 03:49:00,
2013-12-13 23:04:00,-999.0,-99.9,26.50,North,-999,-999.0,-999.0,-999,0.00,,,0.00,weatherlink.com 1.10,2013-12-14 04:04:00,
2013-12-13 23:19:00,-999.0,-99.9,26.50,North,-999,-999.0,-999.0,-999,0.00,,,0.00,weatherlink.com 1.10,2013-12-14 04:19:00,
2013-12-13 23:34:00,-999.0,-99.9,26.50,North,-999,-999.0,-999.0,-999,0.00,,,0.00,weatherlink.com 1.10,2013-12-14 04:34:00,
2013-12-13 23:49:00,-999.0,-99.9,26.49,North,-999,-999.0,-999.0,-999,0.00,,,0.00,weatherlink.com 1.10,2013-12-14 04:49:00,